CZ-2D DEB

Satellite information

Favourite Embed

Satellite Type and Status

DEBRISIN ORBIT

Key statistics

Satellite CZ-2D DEB at a glance.

Uptime

4977

Days in orbit

Revolutions

≈ 14.5

Per day

Orbit

SSO

Sun Synchronous Orbit

Inclination

98.5

Latest

Satellite identification and parameters

Extended collection of information and parameters for CZ-2D DEB.

Object identification

Identified? True

Debris? True

Object name: CZ-2D DEB

International designator: 2011-068E

Object number (NORAD): 38177

Object ID (CCSDS): 38177

Country: PEOPLES REPUBLIC OF CHINA (PRC)

Current information (Y/N): Y

RCS size: SMALL

Orbital parameters

Period: 99.624 minutes

Inclination: 98.5311 deg

SMA: 7118.734 km

Apoapsis: 827.371 km

Periapsis: 653.827 km

RAAN: 206.4308 deg

Eccentricy: 0.0121893

Argument of periapsis: 194.5349 deg

Mean anomaly: 192.2969 deg

Mean motion: 14.4543517 rev/day

Mean motion (dot): 0.00001192 rev/day2

B* drag term: 0.00032193 1/REarth

Two-line elements (TLE)

Creation date: July 5, 2025, 5:45 p.m.

Reference frame: TEME

Reference center: EARTH

Epoch: July 5, 2025, 12:12 a.m. UTC

TLE line 0: 0 CZ-2D DEB

TLE line 1: 1 38177U 11068E 25186.00833959 .00001192 00000-0 32193-3 0 9995

TLE line 2: 2 38177 98.5311 206.4308 0121893 194.5349 192.2969 14.45435170710456

Live tracking on map

Real-time ground track for satellite CZ-2D DEB.

In-orbit conjunctions

A list of the most updated potential collisions computed for object CZ-2D DEB.

Target Orbit TCA Probability of collision Miss distance Type
CZ-6A DEB SSO 2025-05-13 10:37:38 0.0001185908 237.0 (m) DEBRIS
SKIPPER SSO 2025-01-27 07:27:35 0.0001773561 351.0 (m) PAYLOAD
NOAA 16 DEB SSO 2024-11-11 13:33:01 0.0001244471 87.0 (m) DEBRIS

Associated space launch

CZ-2D DEB was lifted into orbit during the mission ‘Long March 2D | Shiyan Weixing 4 & Chuang Xin 1C’, on board a Long March 2D space rocket.

The launch took place on Nov. 20, 2011, 12:15 a.m. from Launch Area 4 (SLS-2 / 603).

For more information about the launch, click the button.

Launch to space Long March 2D | Shiyan Weixing 4 & Chuang Xin 1C
Long March 2D | Shiyan Weixing 4 & Chuang Xin 1C

Agency: N/A

Status: Launch Successful

Launch date: Nov. 20, 2011, 12:15 a.m. UTC

Rocket: Long March 2D

Launch pad: Launch Area 4 (SLS-2 / 603)

Location: Jiuquan Satellite Launch Center, People's Republic of China

...

Latest news about this satellite

There are no fresh news available about this satellite. Check back as we update our databases every day.


Newsletter sign-up

Weekly statistics, charts and insights to help you stay on top of the space industry.